Date,TemperatureHighF,TemperatureAvgF,TemperatureLowF,DewpointHighF,DewpointAvgF,DewpointLowF,HumidityHigh,HumidityAvg,HumidityLow,PressureMaxIn,PressureMinIn,WindSpeedMaxMPH,WindSpeedAvgMPH,GustSpeedMaxMPH,PrecipitationSumIn
2013-9-1,81.9,75.1,71.1,71.3,69.6,68.0,93,84,68,29.85,29.76,0,0,0,0.00
2013-9-2,81.1,72.1,62.4,69.6,63.6,54.0,95,76,47,29.93,29.76,0,0,0,0.07
2013-9-3,74.7,64.8,59.2,57.3,53.7,49.8,83,68,52,30.05,29.93,0,0,0,0.00
2013-9-4,82.5,68.2,53.8,59.9,56.4,51.2,92,69,40,30.13,30.04,0,0,0,0.00
2013-9-5,73.7,66.5,58.5,59.8,52.6,39.8,88,64,31,30.26,30.10,0,0,0,0.00
2013-9-6,77.3,63.9,50.8,53.3,49.8,46.6,91,63,37,30.29,30.10,0,0,0,0.00
2013-9-7,83.8,69.3,56.6,68.0,58.9,47.6,82,70,53,30.10,29.92,0,0,0,0.01
2013-9-8,74.8,69.7,62.4,66.6,62.9,56.8,89,79,66,30.08,29.94,0,0,0,0.00
2013-9-9,86.8,68.4,58.7,73.6,62.5,52.6,93,82,59,30.08,29.93,0,0,0,0.32
2013-9-10,97.1,83.8,73.5,74.3,69.0,64.1,89,64,35,30.07,29.95,0,0,0,0.00
2013-9-11,94.4,80.8,73.1,72.3,68.4,65.4,84,68,40,30.09,29.94,0,0,0,0.00
2013-9-12,81.0,70.7,58.8,68.7,63.1,52.7,94,79,44,30.00,29.85,0,0,0,0.58
2013-9-13,63.7,56.3,48.6,52.5,46.3,41.9,83,70,52,30.15,29.97,0,0,0,0.00
2013-9-14,69.3,55.4,43.1,48.9,43.2,39.3,88,66,38,30.21,30.11,0,0,0,0.00
2013-9-15,70.1,58.0,48.5,55.1,49.4,44.1,92,75,42,30.15,30.02,0,0,0,0.06
2013-9-16,66.5,57.8,52.1,55.6,51.5,46.0,95,81,61,30.36,30.13,0,0,0,0.01
2013-9-17,67.7,56.5,44.5,52.8,47.5,42.0,93,73,51,30.39,30.22,0,0,0,0.00
2013-9-18,78.3,62.5,51.7,61.6,54.6,48.6,90,77,48,30.23,30.05,0,0,0,0.00
2013-9-19,82.3,70.3,61.5,67.8,63.8,58.0,93,81,60,30.07,29.95,0,0,0,0.00
2013-9-20,85.4,73.5,68.3,70.9,67.7,64.7,94,83,59,29.97,29.76,0,0,0,0.23
2013-9-21,70.6,64.1,54.7,66.5,56.0,47.8,95,77,49,29.89,29.71,0,0,0,0.56
2013-9-22,62.9,55.3,48.5,48.7,44.5,41.1,91,68,50,30.08,29.89,0,0,0,0.00
2013-9-23,62.7,53.5,47.0,49.2,45.3,43.0,90,75,54,30.19,30.07,0,0,0,0.00
2013-9-24,65.8,53.5,42.8,50.1,45.7,40.5,94,76,51,30.16,30.00,0,0,0,0.00
2013-9-25,69.7,58.1,49.0,59.3,52.7,46.8,94,83,60,30.01,29.94,0,0,0,0.00
2013-9-26,73.5,60.7,51.1,58.9,51.4,44.7,94,75,36,30.14,29.99,0,0,0,0.01
2013-9-27,73.3,61.5,51.8,61.9,53.5,49.8,95,77,52,30.23,30.14,0,0,0,0.00
2013-9-28,81.4,65.2,49.9,56.9,52.8,48.0,94,68,36,30.20,30.04,0,0,0,0.00
2013-9-29,65.0,62.2,60.2,61.5,57.5,53.0,95,85,68,30.05,29.98,0,0,0,0.25
2013-9-30,71.3,62.2,57.0,58.9,56.9,54.5,95,84,61,30.04,29.95,0,0,0,0.00